959  
ASUS42 KKEY 241811  
RWRKEY  
 
FLORIDA REGIONAL WEATHER ROUNDUP FOR THE FLORIDA KEYS  
NATIONAL WEATHER SERVICE KEY WEST FLORIDA  
200 PM EDT SAT JUN 24 2017  
   
..SOUTH FLORIDA AND THE KEYS
 
 
 
CITY SKY/WX TMP DP RH WIND PRES REMARKS
 
FORT MYERS PTSUNNY 90 75 61 W8 30.06F HX 100  
SW REGIONAL AP PTSUNNY 91 72 53 VRB6 30.06F HX 98  
NAPLES MOSUNNY 90 74 59 SW14 30.06F HX 99  
MIAMI PTSUNNY 90 73 57 SE9G20 30.09F HX 98  
WEST KENDALL MOSUNNY 90 72 55 SE13 30.09F HX 97  
HOMESTEAD PTSUNNY 88 78 72 E13 30.08F HX 100  
MARATHON SUNNY 89 78 70 E10G17 30.07F HX 103  
BOCA CHICA NAS PTSUNNY 89 78 70 E16 30.06F HX 103  
KEY WEST INTL MOSUNNY 89 77 67 E13 30.07F HX 101  
   
..INTERNATIONAL WEATHER
 
 
 
CITY SKY/WX TMP DP RH WIND PRES REMARKS
 
NASSAU BAHAMAS PTSUNNY 93 63 36 E8 30.11S HX 94  
CANCUN MEXICO PTSUNNY 88 79 74 SE14 29.99S HX 102  
COZUMEL MEXICO PTSUNNY 88 75 66 S13 29.96S HX 97  
 
ADJACENT COASTAL WATERS...  
 
STATION/POSITION TIME SKY/WX TEMP WIND PRES WAVE
 
AIR SEA DIR/SP/G HT/PER  
(UTC) (F) (DEG/KT/KT) (MB) (FT/S)  
PULASKI SHOAL LI 1800 83 120/ 12/ 13 1018.1F  
SAND KEY 1750 83 130/ 13/ 14 1018.7F  
LONG KEY NOT AVBL  
MOLASSES REEF 1800 83 84 130/ 11/ 12 1018.9F  
FOWEY ROCKS 1800 83 83 100/ 9/ 10 1019.7F  
BUOY 42097 1730 83 N/A 3/ 5  
 

 
 
 
CLICK HERE TO GO TO PREVIOUS BULLETINS.

The Nexlab FL Page Main Text Page